RUK5DM EGSS-EGPH

Flight info

Callsign RUK5DM
Flight time 0h 50m
Altitude 36000
Route UTAVA Q75 BUZAD T420 TNT UN57 POL UN601 RIBEL DCT INPIP
Aircraft B738/M-SDE2E3FGHIRWXY/LB1

Departure

Time 2026-04-20 21:54
Airport London Stansted Airport (EGSS)

Arrival

Time 2026-04-20 22:44
Airport Edinburgh Airport (EGPH)
Time Latitude Longitude Altitude Speed Heading
2026-04-20 21:37 51.89140 0.25752 357 ft 0 kts 223°
2026-04-20 21:41 51.89141 0.25753 357 ft 1 kts 223°
2026-04-20 21:41 51.89151 0.25768 357 ft 2 kts 223°
2026-04-20 21:42 51.89163 0.25789 357 ft 3 kts 237°
2026-04-20 21:42 51.89169 0.25819 357 ft 3 kts 272°
2026-04-20 21:42 51.89164 0.25851 357 ft 3 kts 304°
2026-04-20 21:42 51.89158 0.25862 357 ft 0 kts 313°
2026-04-20 21:45 51.89162 0.25855 357 ft 2 kts 313°
2026-04-20 21:45 51.89175 0.25830 357 ft 4 kts 309°
2026-04-20 21:45 51.89196 0.25788 357 ft 6 kts 309°
2026-04-20 21:46 51.89226 0.25732 357 ft 8 kts 313°
2026-04-20 21:46 51.89267 0.25662 357 ft 9 kts 313°
2026-04-20 21:46 51.89310 0.25588 357 ft 8 kts 313°
2026-04-20 21:46 51.89312 0.25501 357 ft 9 kts 234°
2026-04-20 21:47 51.89262 0.25421 357 ft 11 kts 223°
2026-04-20 21:47 51.89201 0.25329 357 ft 13 kts 223°
2026-04-20 21:47 51.89130 0.25222 357 ft 15 kts 223°
2026-04-20 21:47 51.89049 0.25101 357 ft 17 kts 223°
2026-04-20 21:48 51.88959 0.24965 357 ft 19 kts 223°
2026-04-20 21:48 51.88859 0.24815 357 ft 20 kts 223°
2026-04-20 21:48 51.88750 0.24652 357 ft 22 kts 223°
2026-04-20 21:48 51.88633 0.24477 357 ft 24 kts 223°
2026-04-20 21:49 51.88509 0.24290 357 ft 25 kts 223°
2026-04-20 21:49 51.88376 0.24090 357 ft 27 kts 223°
2026-04-20 21:49 51.88237 0.23881 357 ft 28 kts 223°
2026-04-20 21:49 51.88088 0.23658 357 ft 30 kts 223°
2026-04-20 21:50 51.87936 0.23430 357 ft 31 kts 223°
2026-04-20 21:50 51.87803 0.23231 357 ft 21 kts 223°
2026-04-20 21:50 51.87718 0.23089 357 ft 16 kts 249°
2026-04-20 21:50 51.87754 0.22961 357 ft 13 kts 311°
2026-04-20 21:51 51.87741 0.22842 357 ft 13 kts 224°
2026-04-20 21:51 51.87671 0.22737 357 ft 15 kts 223°
2026-04-20 21:51 51.87593 0.22618 357 ft 16 kts 223°
2026-04-20 21:51 51.87512 0.22495 357 ft 13 kts 223°
2026-04-20 21:52 51.87443 0.22391 357 ft 13 kts 223°
2026-04-20 21:52 51.87390 0.22283 357 ft 11 kts 252°
2026-04-20 21:52 51.87404 0.22165 357 ft 11 kts 311°
2026-04-20 21:52 51.87457 0.22070 357 ft 12 kts 312°
2026-04-20 21:53 51.87522 0.22024 357 ft 9 kts 39°
2026-04-20 21:53 51.87562 0.22086 357 ft 5 kts 43°
2026-04-20 21:53 51.87570 0.22098 357 ft 0 kts 43°
2026-04-20 21:53 51.87580 0.22112 357 ft 21 kts 43°
2026-04-20 21:54 51.87895 0.22586 357 ft 98 kts 43°
2026-04-20 21:54 51.88549 0.23569 392 ft 153 kts 43°
2026-04-20 21:54 51.89355 0.24781 993 ft 165 kts 43°
2026-04-20 21:54 51.90216 0.26071 1679 ft 176 kts 42°
2026-04-20 21:55 51.91150 0.27463 2402 ft 187 kts 43°
2026-04-20 21:55 51.92129 0.28956 3108 ft 199 kts 41°
2026-04-20 21:55 51.93427 0.29881 3779 ft 212 kts 12°
2026-04-20 21:55 51.94903 0.29586 4469 ft 225 kts 343°
2026-04-20 21:56 51.96255 0.28183 5222 ft 235 kts 324°
2026-04-20 21:56 51.97487 0.26349 6042 ft 249 kts 318°
2026-04-20 21:56 51.98747 0.24302 6914 ft 262 kts 316°
2026-04-20 21:56 52.00048 0.22125 7780 ft 274 kts 316°
2026-04-20 21:57 52.01417 0.19806 8650 ft 300 kts 316°
2026-04-20 21:57 52.02925 0.17229 9527 ft 325 kts 315°
2026-04-20 21:57 52.04531 0.14481 10392 ft 348 kts 315°
2026-04-20 21:57 52.06249 0.11560 11253 ft 368 kts 315°
2026-04-20 21:58 52.08052 0.08482 12111 ft 386 kts 314°
2026-04-20 21:58 52.09938 0.05249 12972 ft 400 kts 314°
2026-04-20 21:58 52.11890 0.01906 13833 ft 410 kts 314°
2026-04-20 21:58 52.13859 -0.01464 14680 ft 418 kts 314°
2026-04-20 21:59 52.15884 -0.04952 15539 ft 424 kts 313°
2026-04-20 21:59 52.17902 -0.08453 16388 ft 428 kts 313°
2026-04-20 21:59 52.19950 -0.12014 17245 ft 429 kts 313°
2026-04-20 21:59 52.21982 -0.15550 18093 ft 430 kts 313°
2026-04-20 22:00 52.24038 -0.19122 18951 ft 429 kts 313°
2026-04-20 22:00 52.26074 -0.22669 19804 ft 427 kts 312°
2026-04-20 22:00 52.28070 -0.26183 20650 ft 424 kts 312°
2026-04-20 22:00 52.30073 -0.29720 21506 ft 421 kts 312°
2026-04-20 22:01 52.32053 -0.33216 22251 ft 428 kts 312°
2026-04-20 22:01 52.34096 -0.36820 22943 ft 434 kts 312°
2026-04-20 22:01 52.36164 -0.40461 23624 ft 438 kts 311°
2026-04-20 22:01 52.38238 -0.44137 24303 ft 439 kts 311°
2026-04-20 22:02 52.40302 -0.47832 24981 ft 438 kts 311°
2026-04-20 22:02 52.42344 -0.51498 25655 ft 437 kts 311°
2026-04-20 22:02 52.44398 -0.55189 26257 ft 437 kts 311°
2026-04-20 22:02 52.46453 -0.58875 26779 ft 436 kts 310°
2026-04-20 22:03 52.48480 -0.62503 27278 ft 434 kts 311°
2026-04-20 22:03 52.50518 -0.66152 27780 ft 432 kts 310°
2026-04-20 22:03 52.52540 -0.69815 28283 ft 429 kts 310°
2026-04-20 22:03 52.54539 -0.73461 28785 ft 427 kts 310°
2026-04-20 22:04 52.56503 -0.77052 29281 ft 425 kts 310°
2026-04-20 22:04 52.58461 -0.80633 29779 ft 422 kts 309°
2026-04-20 22:04 52.60425 -0.84218 30279 ft 420 kts 310°
2026-04-20 22:04 52.62383 -0.87791 30780 ft 419 kts 310°
2026-04-20 22:05 52.64314 -0.91326 31275 ft 417 kts 310°
2026-04-20 22:05 52.66261 -0.94906 31778 ft 417 kts 310°
2026-04-20 22:05 52.68203 -0.98496 32281 ft 416 kts 310°
2026-04-20 22:05 52.70102 -1.02023 32774 ft 416 kts 310°
2026-04-20 22:06 52.72036 -1.05619 33276 ft 416 kts 310°
2026-04-20 22:06 52.73959 -1.09159 33773 ft 416 kts 310°
2026-04-20 22:06 52.75913 -1.12749 34277 ft 417 kts 310°
2026-04-20 22:06 52.77838 -1.16291 34772 ft 417 kts 310°
2026-04-20 22:07 52.79760 -1.19840 35267 ft 418 kts 311°
2026-04-20 22:07 52.81711 -1.23459 35770 ft 419 kts 311°
2026-04-20 22:07 52.83634 -1.27048 36202 ft 422 kts 311°
2026-04-20 22:07 52.85618 -1.30730 36332 ft 431 kts 311°
2026-04-20 22:08 52.87626 -1.34431 36382 ft 438 kts 311°
2026-04-20 22:08 52.91759 -1.42020 36379 ft 442 kts 311°
2026-04-20 22:09 52.95869 -1.49565 36375 ft 440 kts 311°
2026-04-20 22:09 52.99976 -1.57028 36371 ft 438 kts 312°
2026-04-20 22:10 53.04620 -1.63459 36373 ft 439 kts 327°
2026-04-20 22:10 53.10102 -1.68067 36380 ft 441 kts 334°
2026-04-20 22:11 53.14821 -1.71361 36368 ft 442 kts 336°
2026-04-20 22:11 53.20536 -1.75132 36363 ft 443 kts 337°
2026-04-20 22:12 53.26282 -1.78874 36363 ft 444 kts 337°
2026-04-20 22:12 53.32053 -1.82609 36366 ft 445 kts 338°
2026-04-20 22:13 53.37838 -1.86269 36368 ft 446 kts 338°
2026-04-20 22:13 53.43628 -1.89925 36373 ft 446 kts 338°
2026-04-20 22:14 53.49458 -1.93640 36378 ft 447 kts 338°
2026-04-20 22:14 53.55238 -1.97445 36379 ft 448 kts 338°
2026-04-20 22:15 53.61010 -2.01332 36380 ft 448 kts 337°
2026-04-20 22:15 53.66827 -2.05261 36380 ft 448 kts 338°
2026-04-20 22:16 53.72615 -2.09149 36380 ft 449 kts 337°
2026-04-20 22:16 53.78402 -2.13107 36387 ft 449 kts 337°
2026-04-20 22:17 53.84199 -2.17079 36396 ft 450 kts 337°
2026-04-20 22:17 53.89983 -2.21035 36408 ft 450 kts 338°
2026-04-20 22:18 53.95773 -2.24992 36416 ft 450 kts 337°
2026-04-20 22:18 54.01591 -2.29033 36396 ft 451 kts 337°
2026-04-20 22:19 54.07405 -2.33108 36383 ft 451 kts 337°
2026-04-20 22:19 54.13188 -2.37186 36389 ft 451 kts 337°
2026-04-20 22:20 54.19000 -2.41303 36392 ft 451 kts 337°
2026-04-20 22:20 54.24800 -2.45395 36394 ft 452 kts 337°
2026-04-20 22:21 54.30584 -2.49466 36396 ft 452 kts 337°
2026-04-20 22:21 54.36403 -2.53550 36404 ft 452 kts 338°
2026-04-20 22:22 54.42266 -2.57593 36407 ft 452 kts 338°
2026-04-20 22:22 54.48096 -2.61661 36411 ft 453 kts 338°
2026-04-20 22:23 54.53901 -2.65699 36387 ft 448 kts 338°
2026-04-20 22:23 54.56773 -2.67721 35998 ft 447 kts 337°
2026-04-20 22:23 54.59620 -2.69757 35477 ft 443 kts 337°
2026-04-20 22:23 54.62455 -2.71802 34929 ft 436 kts 336°
2026-04-20 22:24 54.65212 -2.73796 34381 ft 428 kts 336°
2026-04-20 22:24 54.67951 -2.75778 33827 ft 421 kts 336°
2026-04-20 22:24 54.70619 -2.77708 33278 ft 415 kts 336°
2026-04-20 22:24 54.73259 -2.79613 32728 ft 409 kts 336°
2026-04-20 22:25 54.75881 -2.81501 32175 ft 404 kts 336°
2026-04-20 22:25 54.78471 -2.83355 31622 ft 399 kts 336°
2026-04-20 22:25 54.81013 -2.85133 31075 ft 395 kts 337°
2026-04-20 22:25 54.83558 -2.86899 30522 ft 390 kts 337°
2026-04-20 22:26 54.86049 -2.88660 29944 ft 387 kts 336°
2026-04-20 22:26 54.88534 -2.90461 29344 ft 383 kts 336°
2026-04-20 22:26 54.90984 -2.92233 28743 ft 379 kts 336°
2026-04-20 22:27 54.95808 -2.95725 27541 ft 372 kts 336°
2026-04-20 22:27 54.98164 -2.97449 26945 ft 369 kts 336°
2026-04-20 22:27 55.00535 -2.99193 26340 ft 366 kts 337°
2026-04-20 22:27 55.02852 -3.00868 25746 ft 363 kts 338°
2026-04-20 22:28 55.05198 -3.02515 25143 ft 360 kts 338°
2026-04-20 22:28 55.07523 -3.04127 24540 ft 357 kts 338°
2026-04-20 22:28 55.09822 -3.05759 23938 ft 355 kts 337°
2026-04-20 22:28 55.12069 -3.07404 23343 ft 353 kts 337°
2026-04-20 22:29 55.14325 -3.09098 22740 ft 350 kts 337°
2026-04-20 22:29 55.16544 -3.10849 22138 ft 347 kts 335°
2026-04-20 22:29 55.18685 -3.12731 21556 ft 344 kts 333°
2026-04-20 22:29 55.20782 -3.14689 20962 ft 342 kts 332°
2026-04-20 22:30 55.22876 -3.16699 20357 ft 339 kts 332°
2026-04-20 22:30 55.24922 -3.18690 19759 ft 336 kts 332°
2026-04-20 22:30 55.26962 -3.20690 19157 ft 334 kts 331°
2026-04-20 22:30 55.28958 -3.22656 18563 ft 331 kts 331°
2026-04-20 22:31 55.30963 -3.24637 17960 ft 328 kts 331°
2026-04-20 22:31 55.32951 -3.26603 17357 ft 325 kts 331°
2026-04-20 22:31 55.34898 -3.28534 16760 ft 322 kts 331°
2026-04-20 22:31 55.36846 -3.30471 16159 ft 320 kts 331°
2026-04-20 22:32 55.38768 -3.32387 15560 ft 317 kts 331°
2026-04-20 22:32 55.40688 -3.34306 14957 ft 315 kts 331°
2026-04-20 22:32 55.42578 -3.36199 14357 ft 312 kts 331°
2026-04-20 22:32 55.44445 -3.38073 13760 ft 309 kts 331°
2026-04-20 22:33 55.46316 -3.39954 13156 ft 307 kts 331°
2026-04-20 22:33 55.48148 -3.41799 12559 ft 304 kts 331°
2026-04-20 22:33 55.49976 -3.43645 11959 ft 301 kts 331°
2026-04-20 22:33 55.51797 -3.45488 11354 ft 299 kts 331°
2026-04-20 22:34 55.53571 -3.47281 10761 ft 296 kts 331°
2026-04-20 22:34 55.55366 -3.49094 10155 ft 293 kts 331°
2026-04-20 22:34 55.57119 -3.50862 9558 ft 290 kts 331°
2026-04-20 22:34 55.58870 -3.52624 8956 ft 287 kts 331°
2026-04-20 22:35 55.60587 -3.54351 8358 ft 284 kts 331°
2026-04-20 22:35 55.62306 -3.56087 7769 ft 281 kts 331°
2026-04-20 22:35 55.63980 -3.57790 7342 ft 273 kts 331°
2026-04-20 22:35 55.65607 -3.59456 6912 ft 266 kts 331°
2026-04-20 22:36 55.67173 -3.61073 6492 ft 261 kts 331°
2026-04-20 22:36 55.68736 -3.62699 6060 ft 256 kts 331°
2026-04-20 22:36 55.70250 -3.64285 5637 ft 252 kts 331°
2026-04-20 22:36 55.71758 -3.65878 5207 ft 249 kts 331°
2026-04-20 22:37 55.73205 -3.67425 4915 ft 237 kts 331°
2026-04-20 22:37 55.74574 -3.68914 4659 ft 223 kts 331°
2026-04-20 22:37 55.75849 -3.70321 4399 ft 212 kts 331°
2026-04-20 22:37 55.77156 -3.71348 4133 ft 199 kts 348°
2026-04-20 22:38 55.78487 -3.71829 3896 ft 192 kts 354°
2026-04-20 22:38 55.79789 -3.72193 3639 ft 189 kts 356°
2026-04-20 22:38 55.81076 -3.72306 3360 ft 182 kts 13°
2026-04-20 22:38 55.82215 -3.71484 3196 ft 174 kts 32°
2026-04-20 22:39 55.83193 -3.70276 3057 ft 172 kts 43°
2026-04-20 22:39 55.84033 -3.68807 2932 ft 169 kts 50°
2026-04-20 22:39 55.84771 -3.67168 2808 ft 168 kts 55°
2026-04-20 22:39 55.85430 -3.65477 2701 ft 168 kts 58°
2026-04-20 22:40 55.86064 -3.63710 2566 ft 168 kts 59°
2026-04-20 22:40 55.86669 -3.61958 2449 ft 167 kts 60°
2026-04-20 22:40 55.87272 -3.60177 2315 ft 168 kts 60°
2026-04-20 22:40 55.87873 -3.58397 2189 ft 165 kts 60°
2026-04-20 22:41 55.88461 -3.56650 2065 ft 167 kts 60°
2026-04-20 22:41 55.89064 -3.54852 1955 ft 168 kts 60°
2026-04-20 22:41 55.89664 -3.53073 1818 ft 168 kts 60°
2026-04-20 22:41 55.90226 -3.51423 1692 ft 144 kts 60°
2026-04-20 22:42 55.90728 -3.49941 1528 ft 137 kts 60°
2026-04-20 22:42 55.91207 -3.48520 1373 ft 135 kts 60°
2026-04-20 22:42 55.91690 -3.47087 1221 ft 134 kts 60°
2026-04-20 22:42 55.92171 -3.45661 1068 ft 133 kts 60°
2026-04-20 22:43 55.92643 -3.44259 913 ft 133 kts 60°
2026-04-20 22:43 55.93121 -3.42840 732 ft 133 kts 59°
2026-04-20 22:43 55.93599 -3.41421 525 ft 133 kts 59°
2026-04-20 22:43 55.94068 -3.40027 341 ft 131 kts 59°
2026-04-20 22:44 55.94535 -3.38639 172 ft 129 kts 59°
2026-04-20 22:44 55.94954 -3.37392 144 ft 92 kts 59°
2026-04-20 22:44 55.95180 -3.36715 144 ft 41 kts 59°
2026-04-20 22:44 55.95260 -3.36468 144 ft 12 kts 78°
2026-04-20 22:45 55.95228 -3.36387 144 ft 9 kts 144°
2026-04-20 22:45 55.95165 -3.36317 144 ft 12 kts 144°
2026-04-20 22:45 55.95130 -3.36182 144 ft 14 kts 108°
2026-04-20 22:45 55.95094 -3.36007 144 ft 16 kts 118°
2026-04-20 22:46 55.95030 -3.35836 144 ft 13 kts 162°
2026-04-20 22:46 55.94960 -3.35879 144 ft 11 kts 187°
2026-04-20 22:46 55.94917 -3.35803 144 ft 8 kts 119°
2026-04-20 22:46 55.94885 -3.35698 144 ft 11 kts 118°
2026-04-20 22:47 55.94848 -3.35638 144 ft 5 kts 193°
2026-04-20 22:47 55.94808 -3.35674 144 ft 7 kts 209°
2026-04-20 22:47 55.94800 -3.35681 144 ft 0 kts 209°